Cabo Peñas, Asturias

latitud = 43° 39' 20''N | longitud = 005° 50' 57''W
100 metros sobre el nivel del mar | datos mensuales

Fecha, hora, temperatura, viento dirección y velocidad, humedad y presión.

  • 16-08-2018 02:00:00 | 0.00°C | Sudeste |10.00 km/h | 92.00% | 0.00 hPa
  • 16-08-2018 01:00:00 | 0.00°C | Este |13.00 km/h | 92.00% | 0.00 hPa
  • 16-08-2018 00:00:00 | 0.00°C | Este |14.00 km/h | 92.00% | 0.00 hPa
  • 15-08-2018 23:00:00 | 0.00°C | Este |21.00 km/h | 92.00% | 0.00 hPa
  • 15-08-2018 22:00:00 | 0.00°C | Este |21.00 km/h | 91.00% | 0.00 hPa
  • 15-08-2018 21:00:00 | 0.00°C | Este |20.00 km/h | 91.00% | 0.00 hPa
  • 15-08-2018 20:00:00 | 0.00°C | Este |22.00 km/h | 88.00% | 0.00 hPa
  • 15-08-2018 19:00:00 | 0.00°C | Este |21.00 km/h | 87.00% | 0.00 hPa
  • 15-08-2018 18:00:00 | 0.00°C | Este |23.00 km/h | 86.00% | 0.00 hPa
  • 15-08-2018 17:00:00 | 0.00°C | Este |23.00 km/h | 86.00% | 0.00 hPa
  • 15-08-2018 16:00:00 | 0.00°C | Este |27.00 km/h | 83.00% | 0.00 hPa
  • 15-08-2018 15:00:00 | 0.00°C | Este |29.00 km/h | 80.00% | 0.00 hPa
  • 15-08-2018 14:00:00 | 0.00°C | Este |30.00 km/h | 82.00% | 0.00 hPa
  • 15-08-2018 13:00:00 | 0.00°C | Este |28.00 km/h | 79.00% | 0.00 hPa
  • 15-08-2018 12:00:00 | 0.00°C | Este |29.00 km/h | 79.00% | 0.00 hPa
  • 15-08-2018 11:00:00 | 0.00°C | Este |25.00 km/h | 76.00% | 0.00 hPa
  • 15-08-2018 10:00:00 | 0.00°C | Este |24.00 km/h | 82.00% | 0.00 hPa
  • 15-08-2018 09:00:00 | 0.00°C | Este |22.00 km/h | 84.00% | 0.00 hPa
  • 15-08-2018 08:00:00 | 0.00°C | Sudeste |19.00 km/h | 89.00% | 0.00 hPa
  • 15-08-2018 07:00:00 | 0.00°C | Sudeste |20.00 km/h | 90.00% | 0.00 hPa
  • 15-08-2018 06:00:00 | 0.00°C | Este |20.00 km/h | 90.00% | 0.00 hPa
  • 15-08-2018 05:00:00 | 0.00°C | Este |20.00 km/h | 87.00% | 0.00 hPa
  • 15-08-2018 04:00:00 | 0.00°C | Este |22.00 km/h | 88.00% | 0.00 hPa
  • 15-08-2018 03:00:00 | 0.00°C | Este |21.00 km/h | 88.00% | 0.00 hPa